Tracking 27405 objects as of 1-Jun-2023
HD Live streaming from Space Station
objects crossing your sky now

STARLINK-5012

Track STARLINK-5012 now!
10-day predictions
STARLINK-5012 is classified as:


NORAD ID: 53918
Int'l Code: 2022-119AJ
Perigee: 546.2 km
Apogee: 547.6 km
Inclination: 53.2 °
Period: 95.4 minutes
Semi major axis: 6917 km
RCS: Unknown
Launch date: September 24, 2022
Source: United States (US)
Launch site: AIR FORCE EASTERN TEST RANGE (AFETR)
Your satellite tracking list
Your tracking list is empty




NASA's NSSDC Master Catalog

Two Line Element Set (TLE):
1 53918U 22119AJ  23151.79587806  .00000595  00000-0  55466-4 0  9992
2 53918  53.2155 181.0831 0001008  85.2802 274.8305 15.08838744 38913
Source of the keplerian elements: AFSPC